COSMOS 2251 DEB, 36049

Orbit data source: Space-Track

COSMOS 2251 DEB, 36049 is space debris in LEO originally from a launch on Wed, 16 Jun 1993 UTC launched from the Plesetsk Missile And Space Complex (PKMTR). The debris from Iridium 33, an American commercial communications satellite, has been tracked extensively since its accidental collision with the defunct Russian satellite Cosmos 2251 in 2009. This event, occurring at high speed in low Earth orbit (LEO), generated thousands of pieces of space debris, significantly increasing the risk of further collisions. The Iridium 33 debris cloud has impacted space traffic management and orbital debris mitigation strategies, making it a subject of ongoing study in space situational awareness.

Loading next visibility...
Identifier
36049, 1993-036AXL
Orbit
LEO
Country
Flag of CISCIS
Related business
Manufacturer
Unknown
Mission
Spacecraft
Bus & Motor
Unknown
Mass
Unknown
Launch date (UTC)
1993-06-16 (33 years ago)
Launch vehicle
Unknown
Launch site
Plesetsk Missile And Space Complex (PKMTR)
Object type
Payload
Rocket body
Debris
Shape & HBR
Unknown shape, 0.1 m
Radar Cross Section
Small (<0.1 m²)

Expand to show TLE details & history
Last TLE update: 19 hours ago

TLE from 19 hours ago
0 COSMOS 2251 DEB
1 36049U 93036AXL 26236.73656251  .00003448  00000-0  65381-3 0  9992
2 36049  74.0317 349.6112 0012146   8.3553 351.7815 14.64611329890958
Epoch: 2026-08-24T17:40Z
TLE epoch observation values (Epoch: 2026-08-24T17:40:39.000Z)
Latitude
-0.00003°
Longitude
111.43471°
Altitude
672.485 km
Speed
7.525 km/s
True Right ascension
23h 18m 26s
True Declination
0° 00' 00"
Sunlit
Object was in full shadow at epoch
Visualization orbit readout
Latitude
Unknown
Longitude
Unknown
Altitude
Unknown
Speed
Unknown
Apparent Right ascension
Unknown
Apparent Declination
Unknown
Sunlit
N/A
Visualization observer readout
Local Sidereal Time
04:08:40
Azimuth
Unknown
Elevation
Unknown
Doppler factor
Unknown
Orbital elements
Apogee altitude
684.484 km
Perigee altitude
667.348 km
Semi-major axis
7,054.053 km
Eccentricity
0.00121
Inclination
74.0317°
RAAN
349.6112°
Arg. of periapsis
8.3553°
True anomaly
351.76157°
Mean anomaly
351.7815°
Eccentric anomaly
351.77154°
Mean motion
3.66341 °/min
Orbital period
98.27 mins
BSTAR
0.00065381

Documentation

Showing up to 5 results
|